User: anonymous
Location: Unspecified
(0.0000°N, 0.0000°E)
Time: 23:38:44
(UTC+02:00)
Language:

Cosmos 407 Rocket - Orbit

View from above orbital plane
View from above orbital plane
View from above satellite
View from above satellite

Ground track
Ground track

The orbit data is extracted from the following two-line orbital elements,

1 05175U 71035B   14204.73808105  .00000079  00000-0  34818-4 0  4604
2 05175 074.0503 358.1440 0029252 109.7834 250.6478 14.37484241262703
Epoch (UTC): 23 July 2014 17:42:50
Eccentricity: 0.0029252
inclination: 74.0503°
perigee height: 746 km
apogee height: 788 km
right ascension of ascending node: 358.1440°
argument of perigee: 109.7834°
revolutions per day: 14.37484241
mean anomaly at epoch: 250.6478°
orbit number at epoch: 26270

The dashed part of the orbit path shows where the satellite is in the earth's shadow,  

DLR